Temperature
11 11 11 11 11 10 10 9 9 8 7 7 7 7 6 6 5 5 5 5 5 5 4 4 4 4 4 4 4 5 5 5 5 5 6 6 6 7
10 10 10 10 10 10 10 9 8 8 7 6 6 6 5 5 5 4 4 4 4 4 4 4 4 4 4 4 4 4 4 4 5 5 5 6 6 6
10 10 9 9 9 9 9 8 8 7 6 6 5 5 5 4 4 4 3 3 3 3 3 3 3 3 3 3 4 4 4 4 4 4 5 5 5 6
9 9 9 9 9 8 8 8 7 7 6 5 5 4 4 4 3 3 3 3 3 3 2 3 3 3 3 3 3 3 4 4 4 4 4 5 5 5
9 9 8 8 8 8 8 7 7 6 5 5 4 4 3 3 3 3 2 2 2 2 2 2 2 2 2 3 3 3 3 3 3 3 4 4 4 5
8 8 8 8 8 7 7 7 6 6 5 4 4 3 3 3 2 2 2 2 2 2 2 2 2 2 2 2 2 2 2 3 3 3 3 3 4 4
7 7 7 7 7 7 6 6 6 5 5 4 3 3 3 2 2 2 2 1 1 1 1 2 2 2 2 2 2 2 2 2 2 2 3 3 3 4
7 7 7 7 6 6 6 6 5 5 4 4 3 3 2 2 2 1 1 1 1 1 1 1 1 1 1 1 1 1 1 2 2 2 2 2 3 3
6 6 6 6 6 6 5 5 5 4 4 3 3 3 2 2 2 1 1 1 1 1 1 1 1 1 1 1 1 1 1 1 1 1 1 2 2 2
6 6 5 5 5 5 5 4 4 4 3 3 2 2 2 2 1 1 1 1 1 1 1 1 1 1 1 1 1 1 1 1 1 1 1 1 1 2
5 5 5 5 5 4 4 4 3 3 3 2 2 2 2 1 1 1 1 1 1 1 0 0 1 1 1 1 1 1 1 0 0 0 1 1 1 1
4 4 4 4 4 3 3 3 3 2 2 2 2 1 1 1 1 1 1 1 0 0 0 0 0 0 0 1 1 0 0 0 0 0 0 0 0 1
4 4 4 3 3 3 2 2 2 1 1 1 1 1 1 1 1 1 1 0 0 0 0 0 0 0 0 0 0 0 0 0 -0 -0 -0 -0 0 0
3 3 3 3 2 2 2 1 1 1 1 1 1 1 1 1 0 0 0 -0 -0 -0 -0 -0 -0 -0 -0 -0 0 0 0 -0 -0 -0 -0 -0 -0 -0
2 2 2 2 1 1 1 0 0 0 0 0 0 0 0 -0 -0 -0 -0 -1 -0 -0 -0 -1 -1 -1 -1 -0 -0 -0 -0 -0 -0 -0 -0 -1 -1 -1
1 1 1 1 0 0 0 -0 -0 -0 -0 -0 -1 -1 -1 -1 -1 -1 -1 -1 -1 -1 -1 -1 -1 -1 -1 -1 -1 -1 -1 -1 -1 -1 -1 -1 -1 -1
1 0 -0 -0 -0 -0 -0 -1 -1 -1 -1 -1 -1 -1 -1 -2 -1 -1 -1 -1 -1 -1 -1 -1 -1 -1 -1 -1 -1 -1 -1 -1 -1 -1 -1 -1 -1 -1
-0 -0 -0 -0 -0 -0 -0 -1 -1 -1 -1 -2 -2 -2 -2 -2 -2 -2 -2 -2 -2 -2 -2 -2 -2 -2 -2 -1 -1 -1 -1 -1 -1 -2 -2 -2 -2 -2
-1 -1 -0 -0 -0 -0 -1 -1 -1 -1 -1 -2 -2 -2 -2 -2 -3 -2 -2 -2 -2 -2 -2 -2 -2 -2 -2 -2 -2 -1 -2 -2 -2 -2 -2 -2 -2 -2
-1 -1 -1 -1 -1 -1 -1 -1 -1 -2 -2 -2 -2 -2 -3 -3 -3 -3 -3 -3 -3 -3 -3 -3 -2 -2 -2 -3 -3 -2 -2 -2 -3 -3 -3 -3 -3 -3
-1 -1 -1 -1 -1 -1 -1 -2 -2 -2 -2 -2 -2 -2 -3 -3 -3 -3 -3 -3 -3 -3 -3 -2 -2 -3 -4 -4 -3 -2 -2 -3 -3 -3 -3 -3 -3 -3
-2 -2 -2 -2 -2 -2 -2 -2 -2 -2 -2 -2 -3 -3 -3 -3 -3 -3 -3 -3 -3 -3 -3 -3 -4 -4 -4 -4 -4 -3 -3 -4 -4 -4 -4 -4 -4 -4
-2 -2 -2 -2 -2 -2 -2 -2 -2 -2 -3 -3 -3 -3 -3 -3 -3 -3 -4 -4 -4 -4 -4 -4 -4 -5 -5 -4 -4 -4 -4 -4 -4 -4 -4 -5 -5 -5
Wind_Speed
4 5 4 3 3 2 2 3 4 3 3 3 2 3 5 5 4 4 5 5 6 7 7 8 8 8 8 8 9 9 9 10 11 10 10 9 7 7
4 5 4 4 4 3 3 2 3 3 2 1 2 3 4 4 3 4 4 4 5 5 6 6 6 7 7 8 8 9 9 10 10 10 10 9 9 8
5 6 5 5 4 4 3 3 2 3 3 1 2 2 3 3 2 2 3 3 4 4 4 4 5 5 6 7 7 8 9 10 11 10 10 9 9 9
8 7 7 5 5 4 4 4 3 3 3 3 2 2 2 3 3 2 1 2 3 3 3 3 3 4 5 6 7 7 8 9 10 10 10 10 10 10
8 8 8 8 7 5 5 5 4 3 3 3 2 2 2 2 2 1 1 1 2 3 2 2 2 3 4 5 6 7 8 8 8 9 11 11 11 10
7 7 8 8 8 8 6 6 5 4 4 3 3 3 2 2 2 2 2 2 2 2 2 2 1 2 2 4 5 6 7 7 8 9 11 12 12 12
6 6 6 7 8 8 6 6 6 5 4 4 4 3 3 3 4 3 3 2 2 1 1 2 2 1 1 3 4 5 5 6 7 9 10 11 12 13
7 6 6 7 9 10 9 8 8 7 6 5 4 4 5 5 4 3 3 3 2 2 2 2 2 1 2 3 3 3 4 5 7 8 9 10 11 12
8 8 6 7 9 7 8 9 7 7 6 5 5 5 5 6 6 5 4 3 3 3 2 2 1 2 3 3 2 2 3 4 5 6 7 8 9 10
9 9 9 8 9 9 7 6 5 5 4 3 3 3 3 4 6 6 5 3 2 1 2 2 2 2 2 3 2 2 2 3 4 5 6 7 7 8
8 8 9 9 14 15 10 8 6 4 5 5 5 5 6 7 8 5 5 4 2 2 2 2 2 1 1 1 3 3 2 1 2 3 4 5 6 6
7 8 12 12 15 16 10 9 8 6 6 5 4 4 4 5 7 5 6 4 3 3 3 3 2 2 1 1 2 2 2 1 1 1 2 3 4 5
7 7 8 16 16 16 13 8 10 8 7 6 5 4 3 3 3 4 4 4 4 3 3 3 2 2 2 1 1 2 2 1 1 1 1 1 2 2
8 7 8 15 16 16 12 11 13 10 6 5 5 4 4 4 3 4 6 6 4 4 5 5 3 3 3 1 2 1 1 2 2 1 1 1 2 3
7 11 13 16 15 12 14 15 11 6 6 5 6 5 4 5 5 5 5 6 5 4 4 4 3 3 3 3 2 1 1 2 2 1 1 1 2 2
6 10 15 15 11 11 11 9 7 7 7 6 5 4 5 5 5 4 4 3 2 1 2 3 4 4 3 3 3 3 2 2 1 2 1 2 4 5
6 5 5 6 8 7 6 6 6 7 7 6 6 5 6 6 5 4 4 4 4 3 3 3 4 3 3 3 3 4 4 3 3 3 2 3 4 7
9 7 8 8 9 9 9 8 8 8 7 7 6 7 7 7 6 5 5 5 5 4 4 4 4 2 1 4 9 6 4 4 3 3 3 3 4 5
8 7 8 9 9 9 9 9 8 8 7 7 7 7 7 7 6 6 6 5 5 5 5 5 5 5 4 3 4 11 6 3 3 3 4 4 4 3
7 7 8 8 8 9 9 8 8 7 7 8 8 8 8 7 7 7 8 7 6 6 5 5 7 7 7 4 3 3 11 6 4 4 3 3 4 7
6 6 6 7 7 8 8 8 8 8 8 8 8 8 8 8 8 8 8 11 9 7 8 8 8 10 4 2 2 3 4 13 9 5 3 2 2 2
5 6 6 6 6 7 7 8 8 8 9 9 8 8 9 8 9 9 9 8 8 8 8 5 5 6 6 7 7 4 3 4 10 13 11 8 4 4
4 4 5 5 6 6 6 7 8 8 8 9 9 9 9 9 8 8 8 8 7 7 6 5 5 5 6 7 6 5 5 4 3 4 7 15 18 17
Wind_Direction
178 175 169 167 150 147 152 160 170 200 215 156 134 127 122 113 104 86 84 83 77 74 66 56 46 37 33 27 18 14 13 11 7 7 8 8 12 12
169 167 171 165 153 151 160 168 164 174 200 137 127 138 125 121 121 106 102 93 90 85 70 60 47 40 36 30 25 20 17 15 12 13 14 14 17 18
172 175 180 165 159 159 152 159 169 162 188 157 98 120 128 135 132 119 115 105 101 94 77 62 51 44 36 34 28 24 21 19 15 17 18 18 18 19
183 179 179 169 165 161 158 173 178 175 174 188 164 145 145 153 149 145 133 121 119 109 95 76 64 51 39 35 32 27 25 25 22 22 26 28 28 29
183 180 177 169 175 171 171 177 174 169 162 171 173 146 142 151 144 159 174 159 134 139 137 113 83 64 52 44 39 35 31 30 29 29 29 31 35 37
177 175 176 177 179 175 178 177 169 169 172 176 179 167 160 156 157 183 204 205 195 175 173 150 130 92 69 56 48 43 39 37 39 42 41 39 38 40
172 171 172 171 171 173 174 174 172 176 181 187 185 173 174 169 191 186 191 180 195 179 170 210 196 180 103 68 53 48 50 51 51 51 47 44 42 44
173 166 163 162 169 176 174 174 174 177 184 186 189 192 198 192 177 172 162 152 219 224 159 222 176 156 136 103 65 60 63 61 56 51 48 46 44 44
176 172 177 182 176 169 179 181 185 191 187 175 188 199 195 187 167 167 174 175 195 184 140 207 192 177 159 130 105 90 82 68 59 51 47 45 46 46
181 180 180 176 177 170 167 169 179 185 183 176 180 189 170 154 159 165 164 136 96 108 136 177 194 186 166 154 156 135 111 82 62 51 45 42 41 44
189 186 183 180 186 182 171 171 176 179 174 162 150 143 142 148 147 133 141 142 169 209 184 160 169 146 161 186 181 176 159 116 64 44 37 36 34 37
193 195 195 189 190 188 175 173 181 184 166 161 158 154 150 159 162 160 162 161 159 190 195 159 151 127 203 251 188 198 226 251 278 9 21 29 30 39
193 196 197 196 195 194 187 182 193 179 167 166 169 169 160 150 143 141 147 156 160 181 174 144 146 147 168 218 247 211 198 225 272 310 329 350 11 32
198 195 194 195 197 197 195 194 195 180 160 165 171 178 174 167 152 132 122 119 125 149 152 139 149 163 159 180 237 241 234 231 223 246 283 295 314 308
200 195 192 194 195 197 198 196 191 173 166 178 186 187 177 160 139 123 109 108 100 109 138 153 151 156 161 182 200 199 231 249 214 208 253 255 265 278
205 200 195 193 188 190 193 197 185 178 180 187 184 172 153 151 157 153 154 155 151 177 177 180 176 163 178 203 201 219 212 221 213 213 239 261 263 255
179 174 179 177 184 185 187 187 182 183 194 182 178 172 171 172 175 167 162 167 179 177 176 181 192 195 209 199 218 227 223 226 217 205 215 262 262 252
189 187 193 192 192 192 192 193 194 195 193 187 184 181 181 182 180 175 175 184 196 197 183 170 159 152 263 254 222 223 220 222 213 200 198 233 268 257
209 199 199 197 196 194 194 195 197 195 188 189 191 188 184 183 181 187 192 197 205 204 193 173 171 171 188 246 240 207 199 200 192 205 214 218 244 264
209 205 204 199 194 194 195 197 194 187 188 192 192 191 189 188 191 195 198 202 205 203 201 194 195 197 201 205 225 219 208 198 191 208 223 228 252 269
209 205 201 197 195 194 195 194 192 192 191 192 196 196 195 196 203 204 203 208 206 205 212 216 214 200 184 163 236 244 220 215 210 197 192 202 241 256
208 204 200 195 192 192 192 190 191 194 193 196 198 198 199 201 206 206 205 206 209 211 216 209 176 175 184 208 227 228 226 221 226 232 229 215 192 210
217 205 199 196 192 189 189 189 191 197 197 198 199 200 201 204 207 206 207 207 206 207 205 196 183 187 201 211 224 231 232 224 217 224 242 244 245 250
Height
1499 1501 1502 1503 1504 1505 1506 1507 1509 1508 1508 1508 1508 1508 1508 1508 1508 1508 1508 1507 1507 1507 1506 1505 1504 1503 1502 1501 1501 1500 1499 1499 1498 1498 1498 1498 1498 1497
1493 1495 1496 1498 1499 1499 1501 1502 1502 1503 1504 1503 1503 1504 1505 1505 1505 1504 1504 1504 1504 1503 1503 1502 1501 1500 1499 1498 1498 1497 1497 1496 1496 1495 1495 1495 1495 1495
1488 1489 1491 1492 1493 1494 1495 1496 1497 1497 1498 1499 1499 1500 1500 1500 1501 1501 1501 1501 1501 1500 1500 1499 1498 1497 1496 1496 1495 1495 1494 1494 1493 1493 1493 1493 1493 1493
1482 1484 1485 1487 1488 1489 1490 1491 1491 1492 1493 1494 1494 1495 1495 1496 1496 1497 1497 1497 1497 1497 1497 1496 1495 1495 1494 1493 1493 1492 1492 1492 1491 1491 1491 1491 1491 1491
1476 1477 1479 1481 1482 1484 1484 1485 1486 1487 1488 1489 1490 1491 1491 1492 1492 1493 1494 1494 1494 1494 1494 1493 1492 1492 1491 1491 1490 1490 1490 1490 1490 1490 1490 1490 1490 1490
1471 1472 1474 1476 1477 1478 1479 1480 1481 1482 1483 1484 1484 1485 1487 1487 1488 1489 1490 1490 1491 1491 1491 1490 1490 1489 1489 1488 1488 1488 1488 1488 1488 1488 1488 1488 1489 1489
1465 1467 1468 1470 1472 1473 1474 1475 1476 1477 1478 1479 1479 1481 1482 1482 1483 1485 1486 1486 1487 1487 1487 1487 1487 1487 1487 1487 1486 1486 1486 1486 1486 1487 1487 1487 1488 1488
1460 1462 1463 1465 1467 1468 1469 1470 1471 1472 1473 1474 1475 1476 1477 1478 1479 1481 1482 1482 1483 1485 1484 1485 1485 1485 1484 1485 1485 1485 1485 1485 1485 1486 1486 1486 1487 1487
1454 1456 1458 1459 1461 1463 1464 1465 1466 1467 1468 1470 1470 1471 1472 1473 1475 1476 1478 1479 1479 1481 1482 1482 1482 1482 1483 1483 1483 1483 1483 1484 1484 1484 1485 1485 1486 1486
1449 1450 1452 1454 1456 1457 1459 1460 1461 1462 1463 1464 1466 1467 1468 1470 1471 1473 1474 1475 1476 1477 1478 1479 1479 1480 1481 1481 1481 1481 1482 1482 1483 1483 1484 1484 1485 1485
1443 1444 1446 1448 1450 1451 1453 1455 1456 1457 1459 1460 1461 1463 1464 1466 1467 1469 1470 1471 1472 1474 1475 1476 1476 1477 1478 1478 1479 1479 1480 1480 1481 1481 1482 1483 1483 1484
1437 1438 1440 1442 1444 1445 1447 1449 1451 1452 1454 1456 1457 1458 1460 1461 1463 1465 1466 1468 1468 1470 1472 1473 1473 1475 1475 1476 1476 1477 1478 1478 1479 1480 1480 1481 1482 1482
1431 1433 1435 1437 1438 1440 1442 1443 1445 1447 1449 1451 1452 1454 1455 1457 1459 1460 1462 1464 1465 1467 1469 1470 1470 1472 1473 1473 1474 1475 1475 1476 1477 1477 1478 1479 1479 1480
1425 1427 1429 1431 1433 1434 1436 1438 1440 1442 1444 1446 1448 1449 1451 1453 1455 1457 1458 1460 1462 1464 1465 1467 1468 1469 1470 1471 1472 1472 1473 1473 1474 1475 1475 1476 1477 1478
1419 1421 1423 1425 1427 1429 1431 1433 1435 1437 1439 1441 1443 1445 1448 1449 1451 1453 1454 1456 1458 1460 1461 1463 1464 1465 1467 1468 1469 1469 1470 1471 1471 1472 1473 1473 1474 1475
1413 1415 1417 1419 1421 1423 1425 1427 1430 1432 1434 1437 1439 1441 1443 1445 1447 1449 1450 1452 1454 1456 1458 1459 1460 1462 1463 1464 1465 1466 1467 1468 1468 1469 1470 1470 1471 1472
1407 1409 1411 1413 1415 1417 1419 1422 1424 1427 1429 1432 1434 1436 1438 1440 1442 1444 1446 1448 1450 1452 1454 1455 1457 1458 1459 1461 1461 1462 1463 1464 1465 1465 1466 1467 1468 1468
1402 1403 1405 1407 1409 1411 1413 1416 1419 1421 1424 1427 1429 1431 1433 1436 1438 1440 1442 1443 1445 1447 1449 1451 1453 1454 1456 1456 1458 1458 1459 1460 1461 1461 1462 1462 1463 1464
1396 1397 1399 1401 1403 1406 1408 1411 1413 1416 1419 1422 1424 1426 1428 1430 1433 1435 1437 1439 1440 1443 1445 1446 1448 1449 1450 1452 1453 1454 1455 1455 1456 1457 1457 1458 1458 1460
1390 1392 1393 1395 1398 1400 1403 1405 1408 1411 1414 1416 1419 1421 1423 1425 1427 1429 1431 1433 1436 1437 1439 1441 1443 1444 1446 1448 1448 1449 1450 1451 1452 1452 1453 1453 1454 1455
1384 1386 1388 1390 1392 1395 1398 1400 1403 1406 1408 1411 1413 1415 1417 1419 1422 1424 1426 1428 1430 1431 1433 1435 1438 1440 1441 1442 1442 1443 1445 1446 1447 1447 1448 1448 1448 1449
1379 1381 1383 1385 1387 1390 1393 1395 1398 1400 1403 1405 1407 1410 1412 1414 1416 1418 1420 1422 1424 1426 1428 1431 1433 1434 1435 1436 1436 1438 1440 1441 1442 1442 1443 1443 1443 1443
1375 1376 1378 1380 1382 1385 1387 1390 1392 1395 1397 1400 1402 1404 1406 1408 1411 1413 1415 1416 1418 1420 1422 1424 1426 1427 1428 1430 1431 1432 1433 1434 1435 1436 1437 1438 1438 1438